Terug naar catalogus

NSS 703

INTELSAT 703

ActiefCommunicatieGEO
NORAD 23305·PAYLOAD·🇱🇺 Luxembourg

Gelanceerd Oct 6, 1994 vanaf Cape Canaveral Space Force Station

Loading…

TLE

VersSource: Space-Track

Epoch: Sep 14, 2026, 11:58 UTC

1 23305U 94064A   26257.49865723  .00000028  00000-0  00000-0 0  9992
2 23305  11.8814  36.0778 0006569 245.0012 141.0910  0.99300987116626

Volg NSS 703 in realtime met AllMySat

Download on the App Store